TimeMDT,TemperatureF,Dew PointF,Humidity,Sea Level PressureIn,VisibilityMPH,Wind Direction,Wind SpeedMPH,Gust SpeedMPH,PrecipitationIn,Events,Conditions,WindDirDegrees,DateUTC
12:15 AM,37.4,26.6,65,30.29,10.0,Calm,Calm,-,N/A,,Clear,0,2012-10-30 06:15:00
12:35 AM,33.8,24.8,70,30.30,10.0,Calm,Calm,-,N/A,,Clear,0,2012-10-30 06:35:00
1:55 AM,33.8,24.8,70,30.30,10.0,ESE,3.5,-,N/A,,Clear,110,2012-10-30 07:55:00
2:15 AM,32.0,26.6,80,30.31,10.0,SE,3.5,-,N/A,,Clear,140,2012-10-30 08:15:00
2:55 AM,32.0,26.6,80,30.32,10.0,Calm,Calm,-,N/A,,Clear,0,2012-10-30 08:55:00
3:15 AM,30.2,26.6,86,30.32,10.0,Calm,Calm,-,N/A,,Clear,0,2012-10-30 09:15:00
3:35 AM,30.2,24.8,80,30.32,10.0,Calm,Calm,-,N/A,,Clear,0,2012-10-30 09:35:00
3:55 AM,30.2,24.8,80,30.32,10.0,Calm,Calm,-,N/A,,Clear,0,2012-10-30 09:55:00
4:15 AM,28.4,24.8,86,30.32,10.0,Calm,Calm,-,N/A,,Clear,0,2012-10-30 10:15:00
4:35 AM,28.4,24.8,86,30.33,10.0,ESE,3.5,-,N/A,,Clear,110,2012-10-30 10:35:00
4:55 AM,28.4,24.8,86,30.33,10.0,Calm,Calm,-,N/A,,Clear,0,2012-10-30 10:55:00
5:15 AM,28.4,24.8,86,30.33,10.0,Calm,Calm,-,N/A,,Clear,0,2012-10-30 11:15:00
5:35 AM,28.4,24.8,86,30.33,10.0,Calm,Calm,-,N/A,,Clear,0,2012-10-30 11:35:00
6:15 AM,28.4,24.8,86,30.33,10.0,Calm,Calm,-,N/A,,Clear,0,2012-10-30 12:15:00
6:35 AM,26.6,24.8,93,30.34,10.0,Calm,Calm,-,N/A,,Clear,0,2012-10-30 12:35:00
6:50 AM,26.6,24.8,93,30.34,10.0,Calm,Calm,-,N/A,,Partly Cloudy,0,2012-10-30 12:50:00
7:50 AM,24.8,23.0,93,30.35,10.0,Variable,5.8,-,N/A,,Partly Cloudy,0,2012-10-30 13:50:00
8:50 AM,28.4,24.8,86,30.36,10.0,Calm,Calm,-,N/A,,Partly Cloudy,0,2012-10-30 14:50:00
9:50 AM,33.8,24.8,70,30.35,10.0,Calm,Calm,-,N/A,,Partly Cloudy,0,2012-10-30 15:50:00
11:56 AM,46.4,26.6,46,30.30,10.0,Calm,Calm,-,N/A,,Partly Cloudy,0,2012-10-30 17:56:00
12:56 PM,53.6,26.6,35,30.25,10.0,Calm,Calm,-,N/A,,Partly Cloudy,0,2012-10-30 18:56:00
1:46 PM,57.2,24.8,29,30.22,10.0,Calm,Calm,-,N/A,,Partly Cloudy,0,2012-10-30 19:46:00
2:59 PM,62.6,23.0,22,30.19,10.0,Calm,Calm,-,N/A,,Partly Cloudy,0,2012-10-30 20:59:00
3:59 PM,62.6,23.0,22,30.18,10.0,Calm,Calm,-,N/A,,Partly Cloudy,0,2012-10-30 21:59:00
4:54 PM,64.4,23.0,21,30.17,10.0,Calm,Calm,-,N/A,,Partly Cloudy,0,2012-10-30 22:54:00
5:50 PM,60.8,24.8,25,30.18,10.0,WSW,4.6,-,N/A,,Partly Cloudy,250,2012-10-30 23:50:00
6:45 PM,53.6,24.8,33,30.20,10.0,ESE,5.8,-,N/A,,Partly Cloudy,110,2012-10-31 00:45:00
7:15 PM,51.8,24.8,35,30.21,10.0,East,5.8,-,N/A,,Clear,80,2012-10-31 01:15:00
7:35 PM,50.0,24.8,37,30.22,10.0,ENE,3.5,-,N/A,,Clear,60,2012-10-31 01:35:00
7:55 PM,48.2,24.8,40,30.22,10.0,East,5.8,-,N/A,,Clear,100,2012-10-31 01:55:00
8:15 PM,48.2,26.6,43,30.22,10.0,East,9.2,-,N/A,,Clear,90,2012-10-31 02:15:00
8:35 PM,46.4,26.6,46,30.22,10.0,East,5.8,-,N/A,,Clear,80,2012-10-31 02:35:00
8:55 PM,46.4,26.6,46,30.23,10.0,Calm,Calm,-,N/A,,Clear,0,2012-10-31 02:55:00
9:15 PM,46.4,26.6,46,30.23,10.0,Calm,Calm,-,N/A,,Clear,0,2012-10-31 03:15:00
9:35 PM,44.6,26.6,49,30.23,10.0,East,4.6,-,N/A,,Clear,90,2012-10-31 03:35:00
9:55 PM,42.8,26.6,53,30.24,10.0,SE,4.6,-,N/A,,Clear,140,2012-10-31 03:55:00
10:15 PM,41.0,24.8,53,30.24,10.0,SSE,4.6,-,N/A,,Clear,160,2012-10-31 04:15:00
10:35 PM,42.8,26.6,53,30.25,10.0,South,3.5,-,N/A,,Clear,170,2012-10-31 04:35:00
10:55 PM,41.0,24.8,53,30.26,10.0,Calm,Calm,-,N/A,,Clear,0,2012-10-31 04:55:00
11:15 PM,39.2,24.8,56,30.26,10.0,SE,4.6,-,N/A,,Clear,130,2012-10-31 05:15:00
11:35 PM,37.4,24.8,60,30.27,10.0,NE,4.6,-,N/A,,Clear,50,2012-10-31 05:35:00
11:55 PM,37.4,24.8,60,30.27,10.0,South,3.5,-,N/A,,Clear,170,2012-10-31 05:55:00